Satellite: RS-30
Catalog number: 32953
Epoch time:      10280.65330176
Element set:     109
Inclination:      082.5038 deg
RA of node:       319.7536 deg
Eccentricity:    0.0017932
Arg of perigee:   213.8295 deg
Mean anomaly:     146.1643 deg
Mean motion:   12.43008114 rev/day
Decay rate:        1.0e-07 rev/day^2
Epoch rev:           10771
Checksum:              266

Satellite: TACSAT-3
Catalog number: 35001
Epoch time:      10279.41730726
Element set:    0405
Inclination:      040.4564 deg
RA of node:       265.4409 deg
Eccentricity:    0.0020343
Arg of perigee:   119.0113 deg
Mean anomaly:     241.2743 deg
Mean motion:   15.42957560 rev/day
Decay rate:      5.877e-05 rev/day^2
Epoch rev:           07781
Checksum:              277

Satellite: PHARMSAT
Catalog number: 35002
Epoch time:      10279.33720443
Element set:    0381
Inclination:      040.4693 deg
RA of node:       263.5854 deg
Eccentricity:    0.0022749
Arg of perigee:   120.6450 deg
Mean anomaly:     239.6611 deg
Mean motion:   15.43352380 rev/day
Decay rate:      5.065e-05 rev/day^2
Epoch rev:           07782
Checksum:              278

Satellite: HAWKSAT1
Catalog number: 35003
Epoch time:      10279.30797796
Element set:     406
Inclination:      040.4580 deg
RA of node:       254.7942 deg
Eccentricity:    0.0021182
Arg of perigee:   142.4592 deg
Mean anomaly:     217.7713 deg
Mean motion:   15.47690610 rev/day
Decay rate:     1.1887e-04 rev/day^2
Epoch rev:            7792
Checksum:              308

Satellite: CP6
Catalog number: 35004
Epoch time:      10279.29515691
Element set:    0408
Inclination:      040.4628 deg
RA of node:       252.9008 deg
Eccentricity:    0.0020964
Arg of perigee:   149.3151 deg
Mean anomaly:     210.8898 deg
Mean motion:   15.49006585 rev/day
Decay rate:     1.4656e-04 rev/day^2
Epoch rev:           07793
Checksum:              316

Satellite: AEROCUB3
Catalog number: 35005
Epoch time:      10279.29972649
Element set:    0478
Inclination:      040.4757 deg
RA of node:       242.4799 deg
Eccentricity:    0.0022220
Arg of perigee:   177.5544 deg
Mean anomaly:     182.5390 deg
Mean motion:   15.61189019 rev/day
Decay rate:     6.6917e-04 rev/day^2
Epoch rev:           07805
Checksum:              332

Satellite: CASTOR
Catalog number: 35694
Epoch time:      10230.44082147
Element set:     655
Inclination:      051.5930 deg
RA of node:       222.0149 deg
Eccentricity:    0.0004218
Arg of perigee:   308.0851 deg
Mean anomaly:     053.0105 deg
Mean motion:   16.48877011 rev/day
Decay rate:   7.179566e-02 rev/day^2
Epoch rev:            6110
Checksum:              273

Satellite: METEOR-M
Catalog number: 35865
Epoch time:      10280.72888714
Element set:     719
Inclination:      098.7439 deg
RA of node:       333.6497 deg
Eccentricity:    0.0003224
Arg of perigee:   050.3903 deg
Mean anomaly:     309.7549 deg
Mean motion:   14.21830229 rev/day
Decay rate:       1.76e-06 rev/day^2
Epoch rev:            5471
Checksum:              316

Satellite: RS-38
Catalog number: 35869
Epoch time:      10280.75843845
Element set:     733
Inclination:      098.7439 deg
RA of node:       333.7171 deg
Eccentricity:    0.0005443
Arg of perigee:   043.3578 deg
Mean anomaly:     316.8015 deg
Mean motion:   14.21990088 rev/day
Decay rate:       1.77e-06 rev/day^2
Epoch rev:            5472
Checksum:              330

/EX





More information about the Keps mailing list